Regional Weather Roundup
Issued by NWS Pendleton, OR

Home | Current Version | Previous Version | Text Only | Print | Product List | Glossary On
Versions: 1 2 3 4 5 6 7 8 9 10 11 12 13 14 15 16 17 18 19 20 21 22 23 24 25 26 27 28 29 30 31 32 33 34 35 36 37 38 39 40 41 42 43 44 45 46 47 48 49 50
789
ASUS46 KPDT 251004
RWRPDT
PENDLETON REGIONAL WEATHER ROUNDUP
NATIONAL WEATHER SERVICE PENDLETON OREGON
300 AM PDT THU MAY 25 2017

NOTE: FAIR INDICATES FEW OR NO CLOUDS BELOW 12,000 FEET WITH NO
SIGNIFICANT WEATHER AND/OR OBSTRUCTIONS TO VISIBILITY.

# INDICATES UNOFFICIAL STATION AND DATA

WAZ520-251110-
EAST SLOPES OF WASHINGTON CASCADES

CITY            SKY/WX      TMP DP  RH  WIND    PRES   REMARKS
#BULLFROG       N/A         44  36  73  W3      N/A
#CLE ELUM HS    N/A         42  36  79  CALM    29.79F
#CLE ELUM LAKE  N/A         38  34  85  CALM    29.92S
#EASTON DOT     N/A         42  35  76  N2      N/A
#ELK HTS DOT    N/A         43  43  100 SW1     N/A
#GLENWOOD       N/A         36  34  92  CALM    29.83R
#NELSON 3SW     N/A         37  33  85  CALM    30.03F
#NILE           N/A         39  34  82  CALM    29.11S
#TEANAWAY 4NE   N/A         37  35  92  CALM    N/A
#TROUT LAKE 1NE N/A         38  35  89  CALM    29.84R
#TROUT LAKE 1E  N/A         37  34  89  CALM    29.87S
$$

WAZ521-251110-
SIMCOE HIGHLANDS

CITY            SKY/WX      TMP DP  RH  WIND    PRES   REMARKS
#BICKLETON HS   N/A         46  36  68  N9      29.77F
#CENTERVILLE 1SWN/A         42  36  79  CALM    29.79S
#GOLDENDALE 1NE N/A         42  33  70  CALM    N/A
#GOLDENDALE 4W  N/A         40  28  62  CALM    29.88S
#GOODNOE HILLS  N/A         46  40  79  NW8     N/A
#LYLE 6NE       N/A         44  40  86  SE2     29.81S
#PITT 4SE       N/A         39  37  92  CALM    29.87S
$$

WAZ026-251110-
KITTITAS VALLEY

CITY            SKY/WX      TMP DP  RH  WIND    PRES   REMARKS
ELLENSBURG AP   CLEAR       47  36  65  NW14    29.81F WCI 41
YTC-OPS AREA    CLEAR       42  33  70  N26     29.80F WCI 32
#ELLENSBURG CWU N/A         47  37  68  NW12    29.74F WCI 42
#ELLENSBURG 3NE N/A         46  37  71  N7      27.91S
#ELLENSBURG 1E  N/A         47  N/A N/A CALM    N/A
#KITTITAS 4N    N/A         41  31  67  CALM    29.82F
#KITTITAS 3S    N/A         44  37  76  NW1     29.80S
#MANASTASH RDG  N/A         43  43  100 N5      N/A
#ROCKY CYN DOT  N/A         44  37  76  NW8     N/A
#RYEGRASS DOT   N/A         41  35  79  W14     N/A    WCI 33
#THORP 6N       N/A         42  36  79  NW13    29.84F WCI 35
$$

WAZ027-251110-
YAKIMA VALLEY

CITY            SKY/WX      TMP DP  RH  WIND    PRES   REMARKS
SUNNYSIDE AP    PTCLDY      44  37  76  NE3     29.81S
YAKIMA AIRPORT  CLEAR       53  36  52  CALM    29.82S
YAKIMA-VAGABOND CLEAR       47  35  63  E10     29.80S
#DONALD 2NE     N/A         52  13  21  W1      28.66S
#GRANDVIEW      N/A         52  36  54  CALM    29.80S
#MABTON         N/A         51  39  63  W3      29.79F
#MOXEE 2E       N/A         50  N/A N/A CALM    29.87R
#NACHES 2SW     N/A         49  38  66  W12     29.81S WCI 44
#OUTLOOK DOT    N/A         53  35  50  W3      29.76F
#PARKER DOT     N/A         53  35  50  E3      29.80S
#TERRACE HTS    N/A         50  36  58  CALM    29.76S
#TOPPENISH      N/A         52  37  56  CALM    29.72S
#I82 S UMTANUM RN/A         48  34  58  S1      N/A
#UNION GAP DOT  N/A         51  36  56  N3      29.84S
#WEST VALLEY    N/A         51  36  56  N2      29.78S
#W YAKIMA       N/A         50  36  58  CALM    29.80S
#WHITE SWAN 5E  N/A         44  38  79  CALM    29.80S
#WILEY CITY 3W  N/A         44  32  62  CALM    29.78S
#ZILLAH DOT     N/A         52  36  54  W5      N/A
$$

WAZ028-251110-
LOWER COLUMBIA BASIN...WASHINGTON

CITY            SKY/WX      TMP DP  RH  WIND    PRES   REMARKS
PASCO           MOCLDY      54  36  50  S7      29.80R
PROSSER AWOS    N/A         48  37  65  CALM    29.83S
RICHLAND AWOS   PTCLDY      50  38  63  SW5     29.79S
#BENTON CITY    N/A         50  38  63  CALM    29.68S
#CONNELL 5N     N/A         45  39  79  CALM    29.76S
#CONNELL 5NW    N/A         46  40  79  CALM    29.72R
#ELTOPIA 6NW    N/A         49  39  68  CALM    28.76S
#KAHLOTUS       N/A         46  37  71  CALM    29.76S
#KENNEWICK 3S   N/A         52  37  56  S3      29.79R
#PATERSON       N/A         51  42  71  CALM    29.78S
#PROSSER DOT    N/A         50  39  66  CALM    29.80S
#SAGEMOOR 2W    N/A         50  38  63  NW7     29.64R
#TOUCHET 2S     N/A         51  42  71  SW6     29.78R
#WEST PASCO     N/A         53  36  52  CALM    29.77S
$$

WAZ029-251110-
FOOTHILLS OF THE BLUES...WASHINGTON

CITY            SKY/WX      TMP DP  RH  WIND    PRES   REMARKS
WALLA WALLA AP  PTCLDY      51  39  63  S10     29.80S
#CLYDE 6NW      N/A         43  36  76  CALM    29.76R
#DELANEY DOT    N/A         48  37  65  CALM    29.79R
#LOWDEN 2SE     N/A         48  41  77  CALM    29.77S
#PLEASANT VIEW 1N/A         45  36  70  SW5     29.79S
#PRESCOTT       N/A         42  38  86  CALM    29.77S
#WHITMAN COLLEGEN/A         51  39  63  SE3     29.83S
#WAITSBURG 6SSE N/A         46  36  68  CALM    29.79R
#WALLA WALLA 5E N/A         51  39  63  S8      N/A
#WHITMAN MISSIONN/A         48  40  74  CALM    29.81R
$$

WAZ030-251110-
BLUE MOUNTAINS...WASHINGTON

CITY            SKY/WX      TMP DP  RH  WIND    PRES   REMARKS
#DIXIE 5SE      N/A         54  33  45  SW9     29.72S
$$

ORZ009-041-WAZ024-251110-
COLUMBIA RIVER GORGE

CITY            SKY/WX      TMP DP  RH  WIND    PRES   REMARKS
HOOD RIVER AP   CLEAR       45  39  79  SW3     29.87S
THE DALLES AP   CLEAR       53  44  71  NW13    29.84S
#ARLINGTON AIRPON/A         50  41  71  W5      29.82S
#CELILO DOT     N/A         55  39  55  SW6     N/A
#LYLE           N/A         51  43  74  CALM    29.86S
#MARYHILL       N/A         51  40  66  N3      N/A
#MURDOCK        N/A         54  43  66  NW12    29.81S
#RUFUS DOT      N/A         55  41  59  W8      N/A
#SMITHVILLE     N/A         53  43  69  N14     29.79S

$$

ORZ510-251110-
NORTH CENTRAL OREGON

CITY            SKY/WX      TMP DP  RH  WIND    PRES   REMARKS
#ANTELOPE       N/A         38  34  85  CALM    29.70S
#CHENOWITH 1W   N/A         51  35  54  NW14    N/A
#COW CYN RST AREN/A         42  36  79  S3      N/A
#DUFUR          N/A         37  34  89  CALM    29.80S
#DUFUR 9E       N/A         46  37  71  W1      29.89S
#GRASS VALLEY 1SN/A         39  35  85  S1      29.87S
#KENT DOT       N/A         39  33  79  SW5     N/A
#MAUPIN SCHOOL  N/A         48  39  71  CALM    29.90S
#MORO SCHOOL    N/A         46  41  83  S1      29.93S
#SHANIKO 5WSW   N/A         41  32  70  N3      N/A
#SHANIKO 4NW    N/A         42  34  73  W2      29.83F
#TYGH VALLEY 2NEN/A         43  37  79  CALM    29.84R
#WAPANITIA AIRPON/A         42  37  82  CALM    29.85S
#WASCO DOT      N/A         45  40  82  SW2     N/A
#WASCO 5NE      N/A         45  39  79  SW6     29.81S
$$

ORZ511-251110-
CENTRAL OREGON

CITY            SKY/WX      TMP DP  RH  WIND    PRES   REMARKS
BEND AIRPORT    CLOUDY      41  34  76  CALM    29.82S
PRINEVILLE AP   CLOUDY      39  34  82  MISG    29.87S
REDMOND AIRPORT CLOUDY      40  32  73  S3      29.86S
#ASHWOOD SCHOOL N/A         40  36  85  CALM    29.84R
#BEND 1SW       N/A         35  31  85  CALM    N/A
#BEND-AWBREY    N/A         40  34  79  SE2     29.79S
#BEND-KIM LN    N/A         33  29  85  CALM    29.75S
#CULVER         N/A         41  35  79  CALM    29.76R
#CULVER 8W      N/A         36  33  89  CALM    29.87S
#MADRAS 4S      N/A         39   6  25  S5      29.96R
#POWELL BUTTE   N/A         40  36  85  CALM    29.83S
#PRINEVILLE     N/A         38  33  82  CALM    29.90S
#PRINEVILLE 3N  N/A         42  36  79  E3      29.81S

$$


ORZ509-251110-
EAST SLOPES OF OREGON CASCADES

CITY            SKY/WX      TMP DP  RH  WIND    PRES   REMARKS
SISTERS AWOS    N/A         36  30  79  CALM    29.86R
#CAMP SHERMAN   N/A         33  29  85  CALM    29.91R
#LA PINE 4SW    N/A         29  23  78  CALM    29.91R
#LA PINE 4NW    N/A         28  24  85  CALM    29.82S
#LAVA BUTTE DOT N/A         33  30  89  S8      N/A
#SISTERS 3N     N/A         33  24  69  CALM    29.88S
#SUNRIVER       N/A         35  31  85  CALM    29.78S
#TUMALO 3W      N/A         39  34  82  CALM    29.69R
#WANOGA BUTTE D N/A         31  31  100 CALM    N/A

$$

ORZ044-251110-
LOWER COLUMBIA BASIN...OREGON

CITY            SKY/WX      TMP DP  RH  WIND    PRES   REMARKS
HERMISTON       PTCLDY      49  42  77  SW8     29.81R
#BOARDMAN SCHOOLN/A         51  42  71  SE1     29.80S
#BOARDMAN 8SW   N/A         48  42  80  S6      29.80S
#ECHO 8SW       N/A         48  40  74  SW2     29.83R
#I-84 EX 198 DOTN/A         50  42  74  E8      N/A
#IONE SCHOOL    N/A         51  34  52  CALM    29.82F
#UMATILLA       N/A         50  39  66  CALM    29.74R
$$

ORZ507-251110-
NORTHERN FOOTHILLS OF THE BLUES

CITY            SKY/WX      TMP DP  RH  WIND    PRES   REMARKS
PENDLETON AIRPT PTCLDY      48  39  71  CALM    29.80S
#ADAMS 3WNW     N/A         41  37  86  CALM    29.80S
#ATHENA         N/A         46  40  79  CALM    29.82R
#CAYUSE         N/A         48  39  71  CALM    29.79R
#HELIX SCHOOL   N/A         42  37  82  CALM    29.79S
#HELIX 3N       N/A         43  38  82  S6      29.79S
#HOLDMAN 5SE    N/A         46  40  79  CALM    29.81S
#HOLDMAN 6E     N/A         44  39  82  CALM    29.61R
#M-F FERNDALE   N/A         50  37  61  CALM    29.78S
#M-F GROVE ELEM N/A         50  37  61  SW3     29.79R
#M-FREEWATER 5SEN/A         47  39  74  CALM    29.81S
#PENDLETON DNTN N/A         53  33  46  CALM    29.80S
#PDT AQUATIC CTRN/A         50  34  54  CALM    29.85S
#PDT SUNRIDGE   N/A         48  39  71  CALM    29.83S
#PENDLETON 7NW  N/A         50  39  66  CALM    26.20S
#PILOT ROCK 1S  N/A         49  35  58  S2      29.83F
#PILOT ROCK     N/A         49  37  63  CALM    29.84S
#TUTUILLA       N/A         47  40  76  CALM    29.81S
#UMAPINE 2E     N/A         47  40  76  CALM    29.77S
#WESTON SCHOOL  N/A         46  36  68  CALM    29.79R

$$

ORZ508-251110-
SOUTHERN FOOTHILLS OF THE BLUES

CITY            SKY/WX      TMP DP  RH  WIND    PRES   REMARKS
LEXINGTON       CLEAR       46  39  76  E7      29.86S
#AJAX           N/A         45  32  60  S2      30.00S
#CONDON 5W      N/A         41  34  76  W3      29.82S
#FOSSIL SCHOOL  N/A         42  37  82  CALM    29.81R
#HEPPNER EOC    N/A         45  38  76  CALM    29.75S
#HEPPNER 4NE    N/A         43  37  79  CALM    29.80S
#LEXINGTON 2SE  N/A         44  39  82  SE5     29.81S
#MIKKALO        N/A         46  36  68  SE1     29.94S
#OLEX 4N        N/A         46  38  73  SW7     29.82S
#RUGGS 5NE      N/A         41  37  86  S2      30.01R
#RUGGS 2SW      N/A         43  36  76  SW6     29.82S

$$

ORZ502-503-251110-
BLUE MOUNTAINS

CITY            SKY/WX      TMP DP  RH  WIND    PRES   REMARKS
MEACHAM         MOCLDY      38  30  73  CALM    29.82R
#BATTLE MTN DOT N/A         40  35  82  CALM    N/A
#GRANITE        N/A         38  28  67  E2      29.47S
#GREENHORN 9SW  N/A         38  34  85  CALM    29.86R
#HARDMAN 10S    N/A         38  34  85  CALM    29.90R
#LADD CYN SMT   N/A         45  33  63  W8      N/A
#LADD CREEK ODOTN/A         47  32  56  N2      N/A
#LONG CREEK HS  N/A         43  40  89  CALM    N/A
#N POWDER DOT   N/A         43  34  70  NW8     N/A
#PIKES PEAK     N/A         43  33  67  N15     27.99S WCI 36
#SUMMERVILLE 5NWN/A         44  35  70  NE5     29.83R
#TOLLGATE       N/A         34  32  92  SW1     29.69S
#TROY SCHOOL    N/A         46  40  79  CALM    29.60S
#UKIAH          N/A         38  35  89  CALM    29.70R
#WESTON 4E      N/A         42  37  82  SW1     29.76R
$$

ORZ505-251110-
JOHN DAY BASIN

CITY            SKY/WX      TMP DP  RH  WIND    PRES   REMARKS
JOHN DAY        MOCLDY      42  35  76  CALM    29.83S
#ANTELOPE 9ESE  N/A         46  38  73  CALM    N/A
#DAYVILLE SCHOOLN/A         50  34  54  CALM    29.81F
#MITCHELL       N/A         44  38  79  CALM    30.01S
#MITCHELL 8NW   N/A         43  35  73  CALM    29.81S
#MONUMENT HS    N/A         50  38  63  CALM    29.80S
#MT. VERNON 5SE N/A         41  33  73  CALM    29.78S
#SPRAY SCHOOL   N/A         47  N/A N/A CALM    N/A
$$

ORZ506-251110-
OCHOCO AND JOHN DAY HIGHLANDS

CITY            SKY/WX      TMP DP  RH  WIND    PRES   REMARKS
#HORSE RIDGE DO N/A         30  24  78  CALM    N/A
#IZEE 6NW       N/A         38  33  82  W1      N/A
#PAULINA ODOT   N/A         42  33  70  NW6     N/A
#PINE MTN OBS   N/A         31  30  96  NW2     N/A
#PRAIRIE CITY   N/A         39  34  82  CALM    29.95F
#SENECA         N/A         39  N/A N/A CALM    N/A
#SENECA 9NW     N/A         35  31  85  CALM    29.72S
$$

ORZ049-251110-
GRANDE RONDE VALLEY

CITY            SKY/WX      TMP DP  RH  WIND    PRES   REMARKS
LA GRANDE       MOCLDY      46  34  63  NW12    29.79S WCI 40
#COVE           N/A         44  39  82  N1      29.84S
#COVE SCHOOL    N/A         43  38  82  CALM    29.83S
#COVE 6NW       N/A         44  36  73  CALM    29.75S
#ELGIN 3N       N/A         46  36  68  CALM    29.79R
#ELGIN 1E       N/A         46  39  76  CALM    N/A
#IMBLER SCHOOL  N/A         45  36  70  CALM    29.78R
#ISLAND CITY 4N N/A         43  41  93  CALM    29.93S
#LA GRANDE-LEFFEN/A         46  36  68  N3      29.81R
#UNION 1S       N/A         48  36  63  NW1     29.75S
$$

ORZ050-251110-
WALLOWA COUNTY

CITY            SKY/WX      TMP DP  RH  WIND    PRES   REMARKS
#ENTERPRISE HS  N/A         39  35  85  CALM    29.62R
#IMNAHA SCHOOL  N/A         48  38  68  N1      29.79S
#IMNAHA 10S     N/A         46  37  71  SW5     29.79F
#JOSEPH         N/A         39  34  82  CALM    29.80S
#JOSEPH 3N      N/A         37  29  72  CALM    29.84F
#JOSEPH 3W      N/A         36  32  85  CALM    29.67S
#LOSTINE        N/A         36  32  85  CALM    29.55R
#LOSTINE 3SE    N/A         35  32  89  CALM    29.83S
#MT HOWARD 8000 N/A         26  24  92  N6      29.77F
#PROMISE 1S     N/A         42  33  70  CALM    29.85S
#WALLOWA LAKE   N/A         39  33  79  CALM    29.80S
#WALLOWA SCHOOL N/A         41  36  82  CALM    29.78S



$$



USA.gov is the U.S. government's official web portal to all federal, state and local government web resources and services.